STARLINK-11420, 62591

Orbit data source: Space-Track

STARLINK-11420, 62591 is a payload satellite owned by SpaceX/Seattle (US) in LEO that was launched on Mon, 13 Jan 2025 UTC via an FALCON 9 launch vehicle from the Air Force Eastern Test Range (AFETR). Payload-class satellites include a variety of spacecraft equipped with specific instruments for various scientific and technological missions. These include communications satellites like Starlink; space stations such as the ISS; scientific satellites like the Hubble; Earth observation satellites from companies like Planet Labs, Umbra, and HawkEye 360; GPS; miniature CubeSats for education and research; and military/defense satellites.

Loading next visibility...
Identifier
62591, 2025-008E
Orbit
LEO
Country
Flag of USUS
Related business
Manufacturer
SpaceX/Seattle
Mission
Operational Commercial Communications
Bus & Motor
STARLINK V2MD, Unknown motor
Mass
960 kg wet, ~910 kg dry
Launch date (UTC)
2025-01-13 (2 years ago)
Launch vehicle
FALCON 9
Launch site
Air Force Eastern Test Range (AFETR)
Object type
Payload
Rocket body
Debris
Shape & HBR
Box + 2 Pan, 18.1 m
Radar Cross Section
36.964 m², Large (>1 m²)

Expand to show TLE details & history
Last TLE update: 12 hours ago

TLE from 12 hours ago
0 STARLINK-11420
1 62591U 25008E   26236.30069050  .00172407  00000-0  13174-2 0  9999
2 62591  42.9999 195.9925 0001376 266.3938  93.6773 15.70876792 93651
Epoch: 2026-08-24T07:12Z
TLE epoch observation values (Epoch: 2026-08-24T07:12:59.659Z)
Latitude
0.00004°
Longitude
115.1596°
Altitude
356.221 km
Speed
7.697 km/s
True Right ascension
13h 03m 58s
True Declination
0° 00' 00"
Sunlit
Object was in daylight at epoch
Visualization orbit readout
Latitude
Unknown
Longitude
Unknown
Altitude
Unknown
Speed
Unknown
Apparent Right ascension
Unknown
Apparent Declination
Unknown
Sunlit
N/A
Visualization observer readout
Local Sidereal Time
10:28:56
Azimuth
Unknown
Elevation
Unknown
Doppler factor
Unknown
Orbital elements
Apogee altitude
359.298 km
Perigee altitude
357.445 km
Semi-major axis
6,736.509 km
Eccentricity
0.00014
Inclination
42.9999°
RAAN
195.9925°
Arg. of periapsis
266.3938°
True anomaly
93.69304°
Mean anomaly
93.6773°
Eccentric anomaly
93.68517°
Mean motion
3.92546 °/min
Orbital period
91.71 mins
BSTAR
0.0013174
Loading maneuver chart data...
Computing Atmospheric mass density...
Loading historical data...
Loading historical data...
Loading historical data...
Loading historical data...
Loading historical data...
Loading historical data...
Loading historical data...

Documentation

Showing up to 5 results
|